Preview of NWS' New Version of Forecast
This preview is not operational and should not be used for support decisions.

Regional Weather Roundup (RWR)

Issued by National Weather Service (NWS)

                            
000
ASUS45 KBOI 230510
RWRID 

IDAHO REGIONAL WEATHER ROUNDUP
NATIONAL WEATHER SERVICE BOISE ID
1100 PM MDT SUN SEP 22 2019

NOTE: "FAIR" INDICATES FEW OR NO CLOUDS BELOW 12000 FEET
WITH NO SIGNIFICANT WEATHER AND/OR OBSTRUCTIONS TO VISIBILITY

IDZ012-014-230600-
SOUTHWEST IDAHO

  
CITY           SKY/WX    TMP DP  RH WIND       PRES   REMARKS
BOISE          CLOUDY    62  49  62 N10       29.95R                  
CALDWELL       MOCLDY    58  53  84 W7        29.95R                  
MOUNTAIN HOME  CLOUDY    64  48  54 N18       29.92R                  
$$

IDZ016-017-230600-
SOUTHCENTRAL IDAHO

  
CITY           SKY/WX    TMP DP  RH WIND       PRES   REMARKS
BURLEY         CLEAR     60  31  33 S12       29.96S                  
JEROME         PTCLDY    54  39  57 E8        29.96R                  
TWIN FALLS     PTCLDY    59  33  37 S13       29.94S                  
$$

IDZ019>023-230600-
SOUTHEAST IDAHO

  
CITY           SKY/WX    TMP DP  RH WIND       PRES   REMARKS
IDAHO FALLS    CLEAR     45  40  82 CALM      30.07S                  
POCATELLO      CLEAR     56  35  45 E6        30.04S                  
REXBURG        CLEAR     50  42  74 N5        30.08R                  
$$

IDZ006-010-011-018-031-032-230600-
CENTRAL IDAHO MOUNTAINS

  
CITY           SKY/WX    TMP DP  RH WIND       PRES   REMARKS
MCCALL         LGT RAIN  55  41  59 NW10      30.01R                  
HAILEY         PTCLDY    52  39  62 W6        30.07R                  
STANLEY          N/A     50  33  52 SE6       30.08S                  
SALMON         MOCLDY    57  46  66 CALM      29.94R                  
CHALLIS        PTCLDY    59  33  37 S5        30.00R                  
$$

IDZ002-004-006-007-026-230600-
NORTHERN IDAHO

  
CITY           SKY/WX    TMP DP  RH WIND       PRES   REMARKS
LEWISTON       CLOUDY    59  55  87 SE7       29.93R                  
LOWELL           N/A     61  54  77 CALM      29.94R                  
COEUR D'ALENE  CLOUDY    58  54  86 SE10      29.92S                  
MULLAN PASS    RAIN      45  43  93 NW9       30.01R VSB 1/2          
$$